Total_Precipitation_Accumulation
0.02 0.03 0.04 0.05 0.67 1.84 3.09 1.97 3.33 2.95 3.27 2.74 1.80 2.78 3.69 1.80 1.89 2.15 2.43 1.75 2.11 0.67 0.93 0.33 0.16 0.20 1.55 0.64 0.54 0.26 0.19 0.36 0.32 1.57 0.95 0.56 0.24 0.21 0.25 0.47 0.43 0.33 0.57 0.66 0.97 0.79 1.08 0.82 0.74 0.62 0.56 0.47 0.65 0.57 0.62 0.42 0.15 0.16 0.16 0.10 0.09 0.08 0.07 0.05 0.05 0.07 0.12 0.18 0.20 0.33 0.38 0.34 0.48 0.41 0.48 0.36 0.38 0.44 0.44 0.45 0.47 0.39 0.40 0.37 0.36 0.58 0.70 0.60 0.54 0.56 0.53 0.63 0.73 0.57 0.67 0.83 0.72
0.02 0.07 0.08 0.19 0.87 2.97 3.57 1.31 1.96 2.32 2.07 2.45 1.53 1.51 2.36 1.89 1.82 1.73 1.27 2.40 1.93 1.18 0.41 0.56 0.21 0.12 0.86 0.73 0.18 0.07 0.14 0.17 0.16 0.17 0.26 0.30 0.30 0.33 0.30 0.55 0.44 0.36 0.29 0.52 0.57 0.57 0.83 0.91 0.51 0.58 0.57 0.43 0.40 0.50 0.48 0.32 0.17 0.12 0.13 0.10 0.12 0.09 0.06 0.07 0.17 0.30 0.24 0.24 0.37 0.32 0.44 0.41 0.55 0.38 0.38 0.49 0.37 0.75 0.52 0.46 0.67 0.59 0.49 0.61 0.46 0.56 0.69 0.66 0.47 0.70 0.57 0.70 0.66 0.70 0.65 0.75 0.70
0.09 0.22 0.17 0.51 1.14 2.09 2.62 2.11 2.68 2.33 2.81 2.08 2.09 2.13 1.53 1.86 2.10 1.67 1.76 1.97 1.29 0.59 0.36 0.29 0.21 0.37 0.31 0.36 0.32 0.48 0.43 0.20 0.10 0.07 0.31 0.46 0.45 0.89 0.50 0.51 0.46 0.19 0.25 0.32 0.37 0.49 0.65 0.69 0.48 0.38 0.33 0.36 0.30 0.35 0.39 0.23 0.19 0.20 0.18 0.20 0.13 0.14 0.13 0.21 0.27 0.32 0.23 0.38 0.33 0.35 0.41 0.52 0.52 0.58 0.65 0.60 0.84 0.56 0.60 0.55 0.66 0.53 0.74 0.69 0.55 0.77 0.80 0.69 0.59 0.65 0.72 0.80 0.81 0.84 0.75 0.75 0.68
0.16 0.27 0.93 0.46 2.80 1.18 2.99 3.02 2.54 2.91 2.20 2.01 1.84 2.09 2.53 1.74 2.05 2.01 2.23 1.36 0.73 0.16 0.13 0.30 0.86 0.55 0.70 0.54 0.29 0.15 0.18 0.30 0.09 0.02 0.49 0.32 0.24 0.23 0.24 0.48 0.53 0.29 0.18 0.33 0.26 0.46 0.38 0.48 0.17 0.32 0.34 0.25 0.22 0.27 0.22 0.21 0.38 0.33 0.22 0.23 0.22 0.27 0.17 0.21 0.22 0.18 0.26 0.28 0.34 0.37 0.50 0.55 0.73 0.80 0.61 0.80 0.96 0.77 0.64 0.63 0.61 0.83 0.97 0.79 1.04 1.08 0.77 0.81 0.62 0.76 0.85 0.71 0.84 0.77 0.86 0.84 0.70
0.51 0.58 0.48 1.36 2.10 2.76 2.07 2.06 2.99 2.50 2.39 2.06 2.44 2.27 1.92 2.58 2.06 1.84 2.24 1.33 0.28 0.36 0.13 0.48 0.47 0.38 1.03 0.84 0.23 0.98 0.33 0.13 0.11 0.06 0.14 0.21 0.06 0.12 0.16 0.22 0.41 0.20 0.19 0.27 0.44 0.35 0.51 0.34 0.18 0.26 0.26 0.35 0.26 0.23 0.22 0.27 0.49 0.30 0.25 0.27 0.18 0.23 0.17 0.18 0.21 0.26 0.35 0.33 0.44 0.36 0.61 0.71 0.55 0.69 0.87 1.03 0.80 0.68 0.72 0.73 0.68 0.73 1.10 1.30 1.16 0.70 0.93 0.90 0.90 0.65 0.71 0.65 0.56 0.83 0.65 0.65 0.58
0.64 0.69 0.54 1.07 3.29 3.40 1.81 2.60 2.65 2.53 2.10 1.82 2.22 2.36 1.33 1.50 0.98 1.56 0.81 0.46 0.34 0.32 0.24 0.40 0.38 0.25 0.34 0.30 0.23 0.22 0.09 0.39 0.21 0.13 0.08 0.17 0.10 0.07 0.09 0.17 0.19 0.31 0.32 0.29 0.24 0.42 0.55 0.22 0.24 0.36 0.27 0.15 0.24 0.28 0.43 0.32 0.16 0.18 0.31 0.18 0.19 0.24 0.31 0.29 0.36 0.40 0.48 0.39 0.50 0.46 0.44 0.43 0.55 0.64 0.79 1.11 0.88 0.98 1.01 0.87 0.68 0.79 1.08 1.16 1.09 0.95 0.81 0.75 0.75 0.53 0.50 0.48 0.77 0.67 0.76 0.49 0.39
0.79 0.48 1.00 0.82 0.93 1.97 2.38 1.71 2.10 2.06 2.91 1.50 1.85 2.16 1.53 1.29 0.94 0.51 0.89 0.56 0.27 0.76 0.57 0.47 0.08 0.15 0.30 0.17 0.08 0.16 0.09 0.05 0.16 0.08 0.08 0.08 0.05 0.08 0.14 0.17 0.19 0.21 0.26 0.25 0.23 0.14 0.31 0.17 0.22 0.24 0.17 0.17 0.25 0.22 0.24 0.21 0.23 0.31 0.25 0.23 0.27 0.27 0.33 0.42 0.45 0.48 0.51 0.57 0.51 0.44 0.42 0.49 0.64 0.76 0.78 0.76 0.82 0.96 1.07 0.97 0.72 1.03 0.98 1.04 1.12 1.22 0.78 0.72 0.87 0.76 0.60 0.53 0.64 1.05 1.00 0.61 0.67
0.20 1.05 1.99 1.48 2.83 1.51 2.14 1.78 2.15 1.51 2.46 1.92 1.84 1.34 1.48 1.62 1.43 1.08 0.51 0.64 0.40 0.66 0.51 0.37 0.34 0.66 0.66 0.08 0.75 0.19 0.09 0.10 0.05 0.04 0.05 0.06 0.07 0.13 0.09 0.09 0.17 0.20 0.25 0.19 0.17 0.25 0.25 0.20 0.27 0.19 0.16 0.30 0.12 0.16 0.21 0.26 0.35 0.34 0.16 0.20 0.18 0.31 0.28 0.41 0.53 0.48 0.52 0.51 0.37 0.44 0.57 0.66 0.51 0.70 0.95 0.83 0.88 1.09 1.05 1.22 1.08 1.10 1.09 0.97 0.93 0.85 1.03 0.85 0.67 0.84 0.64 0.68 0.88 0.87 1.23 0.54 0.42
0.57 0.60 0.76 1.39 1.68 1.21 1.57 2.49 2.12 1.22 1.50 1.46 1.42 1.52 1.96 1.76 1.08 1.11 1.09 1.15 0.63 0.71 0.37 0.42 0.30 0.59 0.42 0.27 0.26 0.27 0.17 0.05 0.03 0.01 0.04 0.05 0.06 0.07 0.10 0.08 0.10 0.17 0.15 0.16 0.21 0.30 0.28 0.17 0.18 0.13 0.16 0.17 0.18 0.10 0.19 0.26 0.21 0.24 0.29 0.21 0.23 0.29 0.29 0.24 0.45 0.32 0.36 0.43 0.47 0.46 0.73 0.77 0.68 0.59 0.81 0.84 1.11 0.95 1.04 1.09 0.99 0.89 1.12 1.00 0.94 1.01 0.87 0.87 0.92 0.82 0.77 0.74 0.82 0.97 0.83 0.48 0.41
1.11 0.89 3.40 1.57 1.35 2.19 1.70 1.53 1.57 2.14 2.05 2.24 2.09 1.99 1.89 1.58 1.29 2.37 0.72 0.81 0.68 0.56 0.30 0.43 0.19 0.89 0.34 0.26 0.29 0.22 0.23 0.05 0.03 0.04 0.05 0.04 0.05 0.05 0.04 0.06 0.07 0.12 0.17 0.22 0.14 0.23 0.14 0.38 0.13 0.22 0.20 0.14 0.26 0.22 0.31 0.16 0.32 0.26 0.26 0.23 0.25 0.27 0.27 0.24 0.23 0.23 0.30 0.39 0.57 0.51 0.61 0.70 0.67 0.87 0.79 0.87 0.98 1.07 0.97 1.03 0.90 0.89 0.72 1.09 0.87 0.90 0.87 0.64 0.46 0.67 0.80 0.80 1.06 0.83 0.83 0.53 0.46
1.47 0.77 1.49 1.84 1.68 1.47 1.52 1.35 1.64 2.06 2.08 2.41 1.98 1.95 2.88 2.38 1.26 0.78 1.02 1.00 0.87 0.65 0.15 0.16 0.51 0.25 0.22 0.38 0.42 0.23 0.08 0.02 0.02 0.09 0.06 0.07 0.04 0.03 0.04 0.06 0.09 0.08 0.11 0.14 0.11 0.30 0.36 0.32 0.22 0.12 0.24 0.31 0.23 0.24 0.30 0.29 0.42 0.21 0.22 0.16 0.21 0.23 0.23 0.17 0.26 0.26 0.41 0.59 0.62 0.54 0.59 0.57 0.79 0.92 0.68 0.88 0.80 0.80 0.98 1.08 0.74 0.63 0.92 0.83 0.93 0.89 0.71 0.54 0.59 0.71 0.52 0.87 0.73 0.92 0.83 0.62 0.48
2.29 1.55 1.78 2.19 1.97 1.14 1.29 1.58 1.59 1.72 2.70 2.75 2.93 2.90 2.12 2.01 2.07 1.03 0.89 1.07 0.89 0.31 0.24 0.19 0.61 0.24 0.31 0.18 0.45 0.55 0.12 0.04 0.02 0.02 0.05 0.05 0.04 0.05 0.03 0.07 0.09 0.07 0.04 0.11 0.17 0.33 0.19 0.33 0.35 0.46 0.28 0.32 0.17 0.20 0.22 0.25 0.21 0.26 0.19 0.21 0.19 0.18 0.15 0.22 0.24 0.36 0.64 0.61 0.59 0.69 0.64 0.69 0.68 0.78 0.71 0.67 0.66 0.68 0.83 0.89 0.77 0.85 0.83 0.82 0.75 0.52 0.59 0.76 0.94 0.75 0.93 0.89 0.94 0.83 0.81 0.56 0.59
1.69 1.83 2.50 1.40 1.40 1.28 1.25 1.20 2.27 1.85 2.57 4.32 3.06 3.23 2.72 2.20 1.70 1.65 1.40 0.84 0.37 0.38 0.24 0.56 0.13 0.26 0.59 0.26 0.47 0.26 0.20 0.09 0.04 0.02 0.05 0.03 0.04 0.07 0.04 0.06 0.12 0.08 0.06 0.10 0.18 0.18 0.19 0.32 0.24 0.36 0.37 0.38 0.24 0.25 0.18 0.20 0.17 0.27 0.30 0.26 0.26 0.28 0.27 0.25 0.16 0.39 0.51 0.51 0.72 0.48 0.68 0.76 0.76 0.37 0.42 0.66 0.82 0.65 0.55 0.70 0.92 0.94 1.02 0.81 0.70 0.40 0.54 0.64 0.89 0.90 1.06 1.02 1.14 1.11 0.91 0.61 0.64
0.89 1.71 1.89 1.50 0.57 1.08 1.30 1.74 1.58 2.43 3.25 3.59 3.72 2.24 2.51 2.52 1.62 1.33 0.87 0.68 1.30 1.91 0.23 0.16 0.28 0.47 0.47 0.16 1.06 0.39 0.19 0.08 0.06 0.05 0.04 0.06 0.08 0.05 0.05 0.05 0.05 0.07 0.09 0.10 0.14 0.17 0.18 0.18 0.25 0.23 0.36 0.37 0.41 0.29 0.28 0.27 0.26 0.32 0.30 0.34 0.33 0.27 0.31 0.26 0.26 0.33 0.41 0.38 0.69 0.72 0.63 0.75 0.66 0.65 0.94 0.60 0.51 0.74 0.52 0.59 0.88 1.10 1.01 0.65 0.53 0.44 0.46 0.73 0.75 0.99 1.00 1.18 1.43 1.18 1.27 0.91 0.78
0.97 1.17 1.22 1.00 1.16 0.44 0.66 2.30 1.97 1.80 2.99 4.02 3.89 2.37 1.80 2.16 1.60 1.43 1.15 0.72 1.24 0.95 0.51 0.09 0.33 0.26 0.47 0.10 0.44 0.16 0.13 0.08 0.07 0.04 0.07 0.09 0.08 0.06 0.04 0.07 0.08 0.07 0.10 0.17 0.16 0.18 0.17 0.24 0.27 0.24 0.22 0.38 0.20 0.38 0.58 0.51 0.33 0.42 0.33 0.23 0.26 0.31 0.21 0.28 0.25 0.49 0.53 0.52 0.64 0.78 0.84 0.66 0.72 0.60 0.64 0.93 0.71 0.55 0.72 0.51 0.93 0.72 0.62 0.60 0.37 0.30 0.48 0.85 1.12 1.13 0.97 0.93 1.07 1.16 1.41 1.04 1.13
0.38 0.92 1.25 1.38 1.51 1.45 1.28 1.74 1.37 1.92 3.30 3.86 3.58 2.80 2.00 1.33 1.66 2.34 1.79 2.30 0.38 0.12 0.21 0.39 0.09 0.59 0.21 0.07 0.04 0.06 0.05 0.07 0.06 0.06 0.08 0.13 0.09 0.06 0.11 0.12 0.10 0.12 0.12 0.15 0.13 0.20 0.18 0.25 0.34 0.19 0.32 0.19 0.38 0.45 0.40 0.41 0.27 0.31 0.31 0.49 0.17 0.29 0.27 0.25 0.54 0.56 0.68 0.77 0.78 0.79 0.69 0.66 0.87 0.93 0.82 0.64 0.64 0.68 0.60 0.36 0.47 0.57 0.58 0.42 0.24 0.29 0.33 0.46 0.94 0.82 1.19 1.11 1.12 1.08 1.08 1.25 1.40
0.29 0.56 1.40 1.18 1.79 1.24 1.29 1.44 0.54 2.30 2.78 3.44 2.75 2.83 1.70 1.67 1.33 2.50 1.61 1.15 0.72 0.36 0.75 0.21 0.18 0.06 0.11 0.10 0.06 0.04 0.05 0.04 0.05 0.11 0.09 0.22 0.18 0.26 0.28 0.29 0.19 0.23 0.22 0.19 0.14 0.16 0.29 0.33 0.44 0.30 0.21 0.21 0.31 0.41 0.28 0.29 0.22 0.37 0.42 0.21 0.23 0.18 0.37 0.45 0.70 0.71 0.85 0.74 0.78 0.58 0.62 0.68 1.03 1.11 0.87 0.63 0.64 0.58 0.33 0.35 0.40 0.44 0.41 0.33 0.32 0.31 0.30 0.44 0.62 1.03 1.06 0.51 0.67 0.98 1.17 0.74 0.86
0.47 1.36 0.93 2.04 1.54 1.37 1.25 1.62 0.94 2.55 3.24 2.23 2.55 2.16 1.52 0.90 0.78 1.56 1.39 1.88 1.50 0.76 0.76 0.18 0.24 0.11 0.06 0.03 0.05 0.03 0.04 0.04 0.08 0.09 0.13 0.16 0.15 0.26 0.24 0.22 0.22 0.22 0.19 0.23 0.19 0.20 0.14 0.16 0.24 0.20 0.25 0.18 0.31 0.32 0.47 0.35 0.44 0.50 0.65 0.42 0.44 0.36 0.46 0.54 0.59 0.64 1.22 0.84 0.60 0.82 0.99 0.96 0.96 1.11 0.87 0.78 0.59 0.51 0.48 0.43 0.30 0.32 0.45 0.42 0.50 0.34 0.27 0.38 0.60 0.65 0.58 0.51 0.53 0.46 0.43 0.39 0.37
0.56 0.86 1.18 2.17 0.64 1.23 0.84 0.73 1.08 1.39 2.36 2.67 2.47 1.21 1.78 1.28 1.06 0.78 1.08 0.93 0.77 0.78 0.49 0.34 0.21 0.07 0.05 0.04 0.04 0.03 0.04 0.07 0.07 0.03 0.05 0.05 0.10 0.09 0.08 0.12 0.13 0.17 0.21 0.20 0.19 0.18 0.10 0.15 0.17 0.16 0.12 0.16 0.27 0.28 0.54 0.33 0.31 0.51 0.48 0.38 0.28 0.42 0.63 0.56 0.70 0.60 0.69 0.46 0.43 0.52 0.80 0.98 0.79 0.94 0.92 0.68 0.81 0.68 0.23 0.31 0.34 0.41 0.43 0.45 0.38 0.30 0.25 0.34 0.38 0.45 0.52 0.35 0.44 0.26 0.50 0.29 0.19
0.52 0.49 1.45 1.63 0.79 0.82 0.47 0.53 0.90 0.80 1.25 1.60 1.28 1.38 1.70 1.72 1.88 1.21 1.60 0.63 0.99 0.61 0.33 0.21 0.11 0.09 0.09 0.06 0.03 0.03 0.03 0.04 0.02 0.07 0.04 0.07 0.03 0.02 0.04 0.06 0.08 0.08 0.08 0.10 0.10 0.18 0.11 0.11 0.11 0.14 0.11 0.15 0.53 0.66 0.44 0.39 0.51 0.49 0.31 0.21 0.14 0.42 0.64 0.79 0.81 0.65 0.46 0.44 0.55 0.82 0.59 0.55 0.60 0.72 0.42 0.37 0.49 0.31 0.36 0.34 0.34 0.35 0.31 0.28 0.31 0.38 0.21 0.26 0.29 0.25 0.40 0.46 0.52 0.41 0.32 0.17 0.14
0.52 0.46 0.81 1.25 0.72 0.79 0.64 0.55 0.76 0.59 1.13 0.94 1.16 1.11 1.44 1.35 1.95 1.67 1.13 1.08 1.51 1.31 0.37 0.23 0.09 0.11 0.04 0.02 0.04 0.03 0.04 0.04 0.06 0.05 0.04 0.03 0.04 0.02 0.01 0.02 0.07 0.06 0.07 0.06 0.09 0.11 0.10 0.07 0.10 0.15 0.08 0.13 0.22 0.24 0.42 0.54 0.63 0.53 0.21 0.26 0.19 0.40 0.65 0.51 0.69 0.41 0.46 0.57 0.43 0.70 0.63 0.66 0.51 0.44 0.41 0.54 0.43 0.47 0.52 0.41 0.52 0.65 0.60 0.75 0.42 0.88 0.93 0.81 0.90 0.79 0.84 0.40 0.38 0.25 0.28 0.15 0.06
0.13 0.50 0.78 0.24 0.50 0.49 0.61 0.35 0.28 0.58 0.58 0.83 1.17 1.49 1.95 1.28 1.40 1.95 0.73 1.44 1.74 1.23 0.88 0.55 0.22 0.03 0.02 0.01 0.02 0.02 0.02 0.03 0.05 0.03 0.03 0.02 0.01 0.04 0.02 0.02 0.06 0.05 0.08 0.09 0.06 0.07 0.10 0.08 0.06 0.14 0.06 0.08 0.09 0.70 0.28 0.25 0.54 0.32 0.41 0.20 0.21 0.39 0.85 0.40 0.54 0.52 0.36 0.61 1.28 0.93 0.43 0.80 0.71 0.64 0.58 0.55 0.52 0.59 0.67 0.65 0.57 0.35 0.49 0.63 0.51 0.76 0.92 0.79 0.78 0.89 0.48 0.15 0.18 0.18 0.08 0.07 0.03
0.20 0.19 0.11 0.15 0.18 1.07 0.56 0.21 0.33 0.23 0.60 1.43 0.90 1.28 0.76 0.93 1.56 1.17 0.63 2.09 1.63 1.10 0.48 0.48 0.20 0.04 0.03 0.02 0.02 0.02 0.01 0.03 0.04 0.03 0.01 0.01 0.01 0.01 0.01 0.01 0.04 0.06 0.05 0.03 0.03 0.06 0.05 0.07 0.05 0.08 0.09 0.11 0.10 0.17 0.30 0.41 0.45 0.27 0.29 0.25 0.46 0.26 0.37 0.59 0.65 0.35 0.54 0.68 0.86 0.65 0.64 0.54 0.52 0.44 0.37 0.29 0.55 0.45 0.34 0.48 0.37 0.52 0.46 0.47 0.46 0.83 0.41 0.78 0.88 0.27 0.42 0.16 0.13 0.27 0.21 0.06 0.07
0.14 0.76 0.09 0.21 0.39 0.37 0.26 0.16 0.05 0.09 0.31 1.27 1.35 0.53 1.14 0.91 1.42 1.10 1.36 1.14 1.53 0.73 0.56 0.24 0.23 0.13 0.02 0.02 0.03 0.02 0.01 0.02 0.01 0.03 0.00 0.01 0.00 0.00 0.00 0.01 0.01 0.02 0.03 0.02 0.03 0.05 0.03 0.05 0.04 0.06 0.08 0.08 0.11 0.12 0.11 0.13 0.12 0.26 0.18 0.20 0.36 0.25 0.52 0.70 0.43 0.42 0.38 0.62 0.46 1.00 0.69 0.67 0.25 0.75 0.43 0.18 0.16 0.23 0.14 0.51 0.74 0.53 0.70 0.90 0.95 0.89 0.32 0.43 0.25 0.36 0.14 0.11 0.07 0.11 0.11 0.04 0.06
0.12 0.30 0.08 0.13 0.17 0.52 0.23 0.09 0.05 0.11 0.69 0.53 0.77 0.76 1.46 1.18 1.89 1.09 1.31 0.86 0.45 0.69 0.33 0.26 0.16 0.11 0.01 0.03 0.01 0.02 0.04 0.04 0.02 0.03 0.00 0.00 0.00 0.01 0.01 0.00 0.01 0.01 0.02 0.03 0.02 0.02 0.04 0.03 0.06 0.05 0.05 0.05 0.08 0.12 0.12 0.13 0.15 0.20 0.15 0.26 0.54 0.28 0.73 0.34 0.19 0.23 0.25 0.20 0.31 0.55 0.72 0.33 0.26 0.16 0.22 0.18 0.08 0.31 0.32 0.23 0.44 0.27 0.29 0.25 0.24 0.26 0.17 0.17 0.17 0.31 0.26 0.09 0.12 0.07 0.08 0.05 0.07
0.00 0.06 0.20 0.19 0.04 0.18 0.42 0.24 0.14 0.45 0.66 0.86 0.89 2.30 1.79 1.28 2.02 1.46 1.52 0.98 0.57 0.36 0.32 0.21 0.08 0.07 0.02 0.02 0.01 0.01 0.02 0.02 0.03 0.01 0.00 0.01 0.01 0.01 0.00 0.00 0.00 0.02 0.01 0.02 0.02 0.02 0.03 0.03 0.02 0.04 0.06 0.04 0.06 0.09 0.17 0.12 0.19 0.17 0.12 0.10 0.08 0.13 0.09 0.13 0.14 0.22 0.20 0.23 0.34 0.60 0.76 0.36 0.19 0.19 0.10 0.08 0.24 0.10 0.28 0.31 0.32 0.24 0.35 0.18 0.25 0.29 0.40 0.27 0.21 0.09 0.07 0.13 0.07 0.09 0.12 0.06 0.07
0.00 0.02 0.03 0.27 0.09 0.10 0.41 0.40 0.70 0.86 1.33 1.51 1.69 0.74 1.78 1.16 0.88 1.43 1.25 0.89 0.60 0.48 0.22 0.37 0.26 0.05 0.02 0.00 0.01 0.02 0.01 0.02 0.00 0.00 0.01 0.00 0.00 0.00 0.00 0.00 0.00 0.00 0.00 0.01 0.02 0.02 0.01 0.03 0.03 0.03 0.03 0.03 0.04 0.08 0.09 0.08 0.10 0.23 0.12 0.07 0.13 0.07 0.21 0.11 0.16 0.32 0.14 0.36 0.33 0.40 0.49 0.41 0.10 0.11 0.10 0.17 0.34 0.09 0.60 0.49 0.16 0.16 0.08 0.14 0.20 0.29 0.16 0.08 0.13 0.21 0.18 0.06 0.09 0.15 0.10 0.08 0.06
0.01 0.00 0.02 0.10 0.12 0.18 0.28 0.40 0.37 0.72 0.81 1.41 2.69 1.62 1.44 1.60 1.18 1.55 1.32 0.59 0.52 0.27 0.11 0.15 0.09 0.08 0.03 0.03 0.01 0.00 0.01 0.02 0.00 0.00 0.01 0.00 0.00 0.00 0.00 0.00 0.00 0.00 0.00 0.01 0.01 0.01 0.03 0.01 0.03 0.01 0.03 0.04 0.04 0.06 0.06 0.08 0.08 0.10 0.08 0.07 0.08 0.04 0.06 0.16 0.30 0.13 0.07 0.11 0.15 0.31 0.26 0.17 0.21 0.17 0.14 0.07 0.49 0.21 0.35 0.41 0.21 0.19 0.10 0.20 0.32 0.11 0.18 0.15 0.13 0.18 0.16 0.16 0.13 0.11 0.10 0.07 0.05
0.00 0.00 0.01 0.20 0.23 0.13 0.48 0.42 0.54 0.71 0.68 1.43 1.00 1.76 2.14 1.18 1.28 1.34 1.07 1.01 0.67 0.26 0.08 0.08 0.06 0.02 0.00 0.00 0.01 0.00 0.01 0.03 0.01 0.00 0.00 0.00 0.00 0.00 0.00 0.00 0.00 0.00 0.00 0.00 0.00 0.00 0.00 0.02 0.02 0.01 0.02 0.03 0.03 0.04 0.05 0.07 0.07 0.04 0.06 0.05 0.04 0.07 0.13 0.08 0.06 0.05 0.08 0.09 0.14 0.09 0.15 0.16 0.18 0.11 0.17 0.35 0.07 0.21 0.17 0.36 0.24 0.05 0.05 0.15 0.18 0.15 0.13 0.14 0.14 0.15 0.27 0.24 0.19 0.14 0.04 0.06 0.07
0.00 0.00 0.58 0.10 0.37 0.46 0.39 1.39 1.69 0.49 1.02 0.62 1.40 1.88 1.27 1.43 1.37 1.48 1.60 0.93 0.52 0.33 0.10 0.13 0.09 0.06 0.03 0.00 0.00 0.00 0.01 0.01 0.00 0.00 0.00 0.00 0.00 0.00 0.00 0.00 0.00 0.00 0.00 0.00 0.00 0.00 0.00 0.01 0.01 0.02 0.02 0.03 0.02 0.03 0.03 0.03 0.02 0.03 0.03 0.06 0.10 0.12 0.16 0.15 0.09 0.08 0.13 0.09 0.06 0.04 0.10 0.13 0.09 0.18 0.31 0.31 0.14 0.22 0.19 0.23 0.32 0.17 0.06 0.10 0.10 0.09 0.13 0.20 0.14 0.27 0.18 0.16 0.18 0.16 0.08 0.07 0.10
0.00 0.00 0.03 0.26 0.21 0.50 0.80 1.62 1.12 0.91 0.56 1.18 1.18 1.58 1.68 1.37 1.62 1.36 1.35 0.93 0.55 0.42 0.32 0.11 0.18 0.06 0.02 0.00 0.00 0.00 0.00 0.00 0.00 0.00 0.00 0.00 0.01 0.00 0.00 0.00 0.00 0.00 0.00 0.00 0.00 0.00 0.00 0.00 0.01 0.01 0.01 0.02 0.04 0.03 0.03 0.02 0.01 0.02 0.02 0.03 0.07 0.18 0.15 0.12 0.12 0.05 0.04 0.04 0.03 0.03 0.10 0.13 0.10 0.29 0.28 0.22 0.11 0.37 0.11 0.12 0.26 0.17 0.19 0.17 0.10 0.10 0.12 0.22 0.14 0.13 0.10 0.22 0.14 0.12 0.12 0.05 0.05
0.01 0.03 0.07 0.05 0.16 0.49 0.82 0.81 1.18 0.56 0.41 0.91 0.62 1.29 1.62 1.35 1.18 1.20 0.69 0.73 0.79 0.91 0.52 0.15 0.20 0.18 0.03 0.01 0.01 0.01 0.01 0.00 0.00 0.00 0.00 0.00 0.00 0.00 0.01 0.00 0.00 0.00 0.00 0.00 0.00 0.00 0.00 0.01 0.00 0.00 0.01 0.01 0.01 0.01 0.02 0.01 0.01 0.02 0.02 0.02 0.08 0.11 0.05 0.13 0.20 0.07 0.04 0.04 0.01 0.03 0.09 0.15 0.18 0.17 0.32 0.37 0.20 0.18 0.18 0.12 0.15 0.16 0.08 0.16 0.14 0.11 0.16 0.21 0.21 0.28 0.16 0.29 0.16 0.18 0.08 0.04 0.05
0.01 0.03 0.15 0.07 0.12 0.33 0.21 0.45 0.67 0.69 0.37 0.62 1.10 1.48 1.18 1.66 0.96 1.21 1.11 1.16 1.01 0.62 0.84 0.75 0.19 0.43 0.14 0.05 0.01 0.02 0.01 0.00 0.01 0.00 0.00 0.00 0.00 0.00 0.00 0.00 0.00 0.00 0.00 0.00 0.00 0.00 0.00 0.00 0.02 0.00 0.00 0.00 0.01 0.01 0.01 0.01 0.01 0.02 0.02 0.01 0.03 0.03 0.13 0.04 0.10 0.04 0.09 0.02 0.08 0.06 0.09 0.13 0.20 0.31 0.22 0.23 0.18 0.19 0.18 0.10 0.19 0.20 0.19 0.14 0.12 0.30 0.12 0.11 0.46 0.24 0.20 0.12 0.11 0.18 0.15 0.05 0.07
0.01 0.01 0.03 0.02 0.09 0.16 0.39 0.14 0.11 0.62 0.23 0.38 0.37 1.14 1.46 1.18 1.03 1.71 1.07 1.00 0.98 1.43 0.77 0.39 0.53 0.29 0.07 0.03 0.02 0.02 0.02 0.00 0.02 0.00 0.00 0.00 0.00 0.00 0.00 0.00 0.00 0.00 0.00 0.00 0.00 0.00 0.00 0.00 0.00 0.00 0.00 0.01 0.01 0.02 0.01 0.01 0.02 0.02 0.03 0.02 0.04 0.02 0.07 0.09 0.03 0.14 0.12 0.08 0.11 0.21 0.17 0.16 0.19 0.22 0.23 0.27 0.30 0.29 0.16 0.18 0.26 0.28 0.19 0.11 0.26 0.20 0.45 0.26 0.25 0.20 0.31 0.17 0.10 0.11 0.13 0.12 0.07
0.01 0.00 0.02 0.03 0.13 0.35 0.31 0.17 0.37 0.09 0.11 0.39 0.71 0.58 0.85 0.87 0.94 1.11 0.90 1.32 1.22 0.60 0.54 0.54 0.17 0.60 0.22 0.01 0.08 0.03 0.02 0.03 0.02 0.01 0.00 0.00 0.00 0.00 0.00 0.00 0.00 0.00 0.00 0.00 0.00 0.00 0.01 0.01 0.00 0.01 0.01 0.01 0.01 0.01 0.01 0.02 0.02 0.04 0.06 0.06 0.03 0.03 0.07 0.07 0.06 0.09 0.09 0.09 0.14 0.11 0.08 0.29 0.25 0.35 0.32 0.40 0.26 0.31 0.21 0.14 0.09 0.18 0.08 0.12 0.23 0.37 0.31 0.28 0.21 0.20 0.30 0.21 0.11 0.13 0.13 0.10 0.11
0.00 0.00 0.01 0.05 0.20 0.32 0.18 0.38 0.08 0.02 0.08 0.29 0.68 0.81 1.12 0.78 0.71 1.00 1.05 1.22 0.86 1.19 1.34 0.85 0.66 0.57 0.44 0.32 0.22 0.04 0.01 0.02 0.02 0.01 0.00 0.00 0.00 0.00 0.00 0.00 0.00 0.00 0.00 0.00 0.00 0.00 0.01 0.00 0.01 0.01 0.01 0.01 0.01 0.02 0.02 0.02 0.01 0.02 0.03 0.03 0.04 0.04 0.02 0.05 0.04 0.04 0.03 0.04 0.13 0.18 0.09 0.18 0.12 0.21 0.17 0.13 0.21 0.20 0.13 0.10 0.15 0.16 0.10 0.15 0.31 0.32 0.23 0.30 0.22 0.30 0.21 0.16 0.20 0.16 0.09 0.09 0.10
0.00 0.00 0.00 0.01 0.02 0.16 0.07 0.23 0.11 0.10 0.12 0.34 0.68 0.70 0.95 0.92 0.50 0.51 0.37 0.75 0.74 0.90 0.96 0.57 0.79 0.54 0.32 0.45 0.14 0.02 0.05 0.03 0.00 0.01 0.01 0.02 0.00 0.00 0.00 0.00 0.00 0.00 0.00 0.00 0.01 0.00 0.00 0.00 0.00 0.00 0.01 0.01 0.03 0.04 0.04 0.02 0.05 0.03 0.03 0.02 0.01 0.02 0.01 0.02 0.02 0.01 0.02 0.10 0.08 0.12 0.05 0.11 0.08 0.09 0.07 0.08 0.07 0.10 0.15 0.23 0.18 0.21 0.20 0.22 0.27 0.32 0.21 0.27 0.28 0.17 0.21 0.14 0.11 0.19 0.27 0.19 0.05
0.00 0.00 0.00 0.01 0.00 0.06 0.01 0.25 0.07 0.10 0.29 0.78 0.21 0.33 0.35 0.46 0.64 0.91 0.70 0.66 0.84 0.76 1.04 0.74 0.32 0.43 0.43 0.15 0.28 0.45 0.08 0.02 0.02 0.02 0.01 0.00 0.00 0.00 0.00 0.00 0.00 0.00 0.00 0.00 0.00 0.00 0.00 0.00 0.00 0.00 0.01 0.01 0.01 0.01 0.02 0.02 0.01 0.01 0.01 0.01 0.01 0.03 0.03 0.02 0.04 0.03 0.03 0.09 0.03 0.02 0.03 0.05 0.04 0.04 0.07 0.09 0.13 0.11 0.10 0.14 0.11 0.29 0.26 0.19 0.16 0.19 0.19 0.19 0.12 0.28 0.20 0.35 0.08 0.18 0.22 0.15 0.09
0.00 0.00 0.01 0.00 0.04 0.01 0.01 0.18 0.02 0.15 0.16 0.49 0.20 0.33 0.30 0.40 0.66 0.92 0.82 0.29 0.37 0.62 0.73 0.58 0.57 0.76 0.91 0.54 0.35 0.22 0.24 0.06 0.03 0.02 0.01 0.01 0.01 0.00 0.00 0.00 0.00 0.00 0.00 0.00 0.00 0.01 0.00 0.00 0.00 0.01 0.01 0.01 0.00 0.01 0.01 0.02 0.01 0.01 0.01 0.02 0.02 0.03 0.02 0.03 0.07 0.09 0.04 0.07 0.03 0.02 0.06 0.04 0.04 0.07 0.07 0.10 0.14 0.20 0.14 0.22 0.16 0.20 0.17 0.07 0.09 0.12 0.11 0.10 0.17 0.13 0.18 0.19 0.18 0.16 0.11 0.10 0.09
0.00 0.00 0.00 0.01 0.01 0.02 0.18 0.13 0.01 0.19 0.09 0.98 0.44 0.35 0.90 0.79 0.60 1.00 1.01 0.60 0.89 0.71 1.27 2.24 1.17 1.44 0.74 0.49 0.37 0.25 0.05 0.26 0.22 0.02 0.01 0.01 0.00 0.00 0.00 0.00 0.00 0.00 0.00 0.00 0.00 0.00 0.01 0.00 0.00 0.01 0.01 0.01 0.01 0.01 0.00 0.01 0.02 0.02 0.01 0.02 0.06 0.04 0.09 0.04 0.10 0.05 0.09 0.07 0.07 0.04 0.06 0.08 0.13 0.16 0.11 0.16 0.20 0.06 0.07 0.10 0.13 0.09 0.07 0.11 0.14 0.12 0.08 0.20 0.10 0.18 0.21 0.23 0.10 0.17 0.19 0.13 0.04
0.00 0.00 0.00 0.00 0.00 0.00 0.00 0.02 0.05 0.13 0.02 0.15 0.27 0.20 0.56 0.49 0.39 0.53 0.93 1.78 1.83 1.46 1.42 2.36 1.83 1.01 0.55 0.43 0.32 0.21 0.35 0.11 0.06 0.01 0.01 0.00 0.00 0.00 0.00 0.00 0.00 0.00 0.00 0.00 0.00 0.00 0.00 0.00 0.02 0.00 0.01 0.01 0.01 0.01 0.01 0.01 0.02 0.03 0.04 0.04 0.04 0.05 0.03 0.06 0.05 0.05 0.05 0.05 0.03 0.04 0.04 0.08 0.11 0.04 0.04 0.03 0.01 0.02 0.03 0.07 0.07 0.11 0.08 0.13 0.11 0.10 0.14 0.18 0.16 0.19 0.09 0.13 0.21 0.23 0.14 0.08 0.07
0.00 0.00 0.00 0.00 0.00 0.00 0.01 0.02 0.03 0.07 0.07 0.03 0.01 0.10 0.19 0.20 0.13 0.25 0.68 1.47 0.76 0.75 0.63 0.72 1.12 0.64 0.45 0.22 0.30 0.30 0.31 0.19 0.12 0.11 0.04 0.03 0.01 0.00 0.00 0.00 0.00 0.00 0.00 0.00 0.00 0.00 0.00 0.00 0.02 0.00 0.01 0.01 0.01 0.01 0.01 0.02 0.04 0.06 0.07 0.08 0.11 0.09 0.10 0.05 0.05 0.02 0.04 0.05 0.03 0.03 0.06 0.03 0.06 0.05 0.01 0.02 0.02 0.02 0.02 0.06 0.05 0.08 0.09 0.11 0.10 0.18 0.14 0.11 0.09 0.17 0.12 0.10 0.13 0.09 0.17 0.05 0.04
0.00 0.00 0.00 0.00 0.00 0.00 0.01 0.01 0.00 0.05 0.06 0.03 0.01 0.22 0.17 0.19 0.41 0.10 0.24 0.48 0.45 0.74 0.59 0.80 0.66 0.74 0.54 0.16 0.18 0.19 0.15 0.16 0.10 0.11 0.08 0.10 0.04 0.01 0.00 0.00 0.00 0.00 0.00 0.00 0.00 0.00 0.00 0.00 0.00 0.03 0.00 0.00 0.01 0.01 0.01 0.01 0.02 0.03 0.05 0.05 0.03 0.04 0.02 0.01 0.03 0.05 0.01 0.02 0.03 0.02 0.02 0.01 0.01 0.00 0.00 0.00 0.04 0.02 0.03 0.04 0.04 0.08 0.08 0.11 0.07 0.13 0.08 0.11 0.11 0.05 0.04 0.06 0.08 0.16 0.06 0.11 0.02
0.00 0.00 0.00 0.00 0.00 0.00 0.00 0.00 0.00 0.01 0.00 0.02 0.03 0.00 0.21 0.37 0.16 0.19 0.11 0.27 0.45 0.74 0.64 0.46 0.36 0.45 0.76 0.26 0.18 0.16 0.17 0.09 0.11 0.07 0.07 0.03 0.04 0.03 0.01 0.00 0.00 0.00 0.00 0.00 0.00 0.00 0.00 0.00 0.00 0.00 0.04 0.00 0.00 0.00 0.01 0.01 0.01 0.01 0.01 0.02 0.01 0.01 0.01 0.01 0.05 0.06 0.02 0.02 0.02 0.02 0.03 0.01 0.01 0.01 0.01 0.06 0.01 0.03 0.02 0.06 0.04 0.03 0.02 0.04 0.07 0.09 0.08 0.11 0.12 0.06 0.04 0.05 0.06 0.07 0.14 0.08 0.05
0.01 0.00 0.00 0.00 0.00 0.00 0.00 0.01 0.01 0.00 0.01 0.14 0.01 0.01 0.03 0.03 0.32 0.12 0.19 0.42 0.56 0.69 0.46 0.28 0.31 0.26 0.45 0.39 0.40 0.75 0.59 0.66 0.45 0.18 0.09 0.04 0.06 0.04 0.04 0.01 0.01 0.00 0.00 0.00 0.00 0.00 0.00 0.00 0.00 0.00 0.00 0.00 0.01 0.01 0.00 0.00 0.00 0.01 0.01 0.01 0.01 0.00 0.01 0.00 0.01 0.02 0.01 0.00 0.01 0.01 0.01 0.02 0.01 0.01 0.01 0.01 0.01 0.03 0.03 0.06 0.04 0.04 0.04 0.06 0.05 0.09 0.12 0.08 0.06 0.09 0.07 0.06 0.05 0.05 0.03 0.07 0.06
0.00 0.00 0.00 0.00 0.00 0.00 0.00 0.00 0.01 0.02 0.01 0.02 0.01 0.01 0.05 0.15 0.38 0.32 0.36 0.56 0.41 0.55 0.35 0.23 0.25 0.35 0.37 0.52 0.47 0.44 0.26 0.45 0.39 0.14 0.13 0.08 0.07 0.04 0.06 0.03 0.02 0.01 0.00 0.00 0.00 0.00 0.00 0.00 0.00 0.00 0.00 0.00 0.00 0.01 0.01 0.00 0.00 0.00 0.00 0.00 0.00 0.01 0.00 0.01 0.00 0.01 0.01 0.01 0.01 0.02 0.01 0.02 0.01 0.04 0.03 0.01 0.02 0.02 0.02 0.05 0.04 0.03 0.03 0.07 0.04 0.12 0.04 0.08 0.05 0.05 0.06 0.06 0.05 0.07 0.05 0.05 0.03
0.00 0.00 0.00 0.00 0.00 0.00 0.00 0.00 0.00 0.01 0.01 0.00 0.01 0.01 0.01 0.27 0.22 0.36 0.19 0.32 0.17 0.17 0.34 0.35 0.48 0.26 0.16 0.30 0.37 0.28 0.26 0.25 0.22 0.13 0.13 0.06 0.06 0.12 0.05 0.08 0.01 0.00 0.01 0.00 0.00 0.00 0.00 0.00 0.00 0.00 0.00 0.00 0.00 0.01 0.01 0.00 0.00 0.00 0.00 0.00 0.00 0.01 0.01 0.01 0.01 0.01 0.01 0.01 0.01 0.01 0.02 0.03 0.03 0.01 0.01 0.02 0.01 0.02 0.01 0.03 0.03 0.02 0.08 0.08 0.02 0.07 0.09 0.02 0.02 0.02 0.02 0.07 0.06 0.09 0.04 0.10 0.03
0.00 0.00 0.00 0.00 0.00 0.00 0.00 0.01 0.01 0.03 0.01 0.01 0.02 0.00 0.02 0.11 0.25 0.23 0.15 0.09 0.11 0.10 0.21 0.07 0.33 0.37 0.32 0.09 0.24 0.30 0.28 0.33 0.55 0.62 0.56 0.25 0.09 0.13 0.02 0.05 0.02 0.01 0.00 0.00 0.00 0.00 0.00 0.00 0.00 0.00 0.00 0.00 0.00 0.00 0.00 0.00 0.00 0.00 0.00 0.00 0.00 0.00 0.00 0.00 0.00 0.01 0.00 0.01 0.01 0.01 0.01 0.02 0.02 0.01 0.00 0.02 0.01 0.00 0.01 0.01 0.01 0.01 0.03 0.04 0.03 0.03 0.03 0.02 0.05 0.02 0.03 0.03 0.04 0.04 0.06 0.08 0.07
0.00 0.00 0.00 0.00 0.01 0.00 0.03 0.01 0.11 0.02 0.02 0.08 0.01 0.00 0.04 0.02 0.03 0.30 0.08 0.04 0.02 0.06 0.21 0.07 0.03 0.14 0.24 0.16 0.15 0.22 0.30 0.40 0.45 0.40 0.26 0.13 0.09 0.07 0.11 0.02 0.01 0.02 0.01 0.00 0.00 0.00 0.00 0.00 0.00 0.00 0.00 0.00 0.00 0.00 0.00 0.00 0.00 0.00 0.00 0.00 0.00 0.00 0.00 0.01 0.01 0.03 0.01 0.00 0.00 0.00 0.01 0.01 0.01 0.01 0.01 0.05 0.01 0.01 0.01 0.01 0.02 0.04 0.03 0.02 0.04 0.04 0.05 0.03 0.10 0.07 0.03 0.03 0.05 0.05 0.07 0.07 0.04
0.00 0.00 0.00 0.00 0.00 0.01 0.01 0.01 0.01 0.04 0.00 0.00 0.00 0.01 0.03 0.09 0.05 0.09 0.17 0.09 0.01 0.03 0.23 0.13 0.02 0.02 0.09 0.07 0.06 0.25 0.35 0.41 0.52 0.21 0.10 0.22 0.16 0.08 0.24 0.34 0.13 0.04 0.02 0.01 0.01 0.00 0.00 0.00 0.00 0.00 0.00 0.00 0.00 0.00 0.00 0.00 0.00 0.00 0.00 0.00 0.00 0.00 0.00 0.00 0.01 0.01 0.01 0.01 0.01 0.01 0.01 0.01 0.02 0.01 0.01 0.01 0.00 0.00 0.00 0.01 0.01 0.02 0.04 0.03 0.07 0.06 0.06 0.04 0.05 0.19 0.07 0.04 0.05 0.03 0.11 0.09 0.09
0.00 0.00 0.00 0.00 0.00 0.00 0.00 0.00 0.01 0.00 0.05 0.06 0.03 0.02 0.14 0.07 0.40 0.09 0.17 0.09 0.02 0.01 0.07 0.15 0.01 0.01 0.01 0.12 0.04 0.12 0.56 0.59 0.46 0.30 0.27 0.31 0.22 0.24 0.41 0.33 0.13 0.04 0.02 0.03 0.00 0.01 0.01 0.02 0.02 0.00 0.00 0.00 0.00 0.00 0.00 0.00 0.00 0.00 0.00 0.00 0.00 0.00 0.00 0.00 0.00 0.00 0.01 0.01 0.01 0.01 0.01 0.01 0.02 0.02 0.00 0.00 0.00 0.00 0.00 0.00 0.01 0.03 0.08 0.03 0.03 0.04 0.04 0.04 0.05 0.04 0.06 0.07 0.18 0.09 0.02 0.04 0.04
0.00 0.00 0.00 0.00 0.00 0.00 0.02 0.02 0.00 0.00 0.03 0.09 0.01 0.08 0.10 0.19 0.05 0.28 0.12 0.04 0.04 0.04 0.14 0.10 0.02 0.03 0.07 0.12 0.06 0.15 0.37 0.60 0.49 0.31 0.22 0.16 0.16 0.21 0.17 0.20 0.08 0.04 0.04 0.01 0.03 0.01 0.01 0.01 0.04 0.00 0.01 0.00 0.00 0.00 0.00 0.00 0.00 0.00 0.00 0.00 0.00 0.00 0.00 0.00 0.00 0.00 0.01 0.01 0.01 0.01 0.02 0.01 0.01 0.08 0.01 0.00 0.01 0.00 0.00 0.01 0.01 0.01 0.03 0.07 0.02 0.03 0.06 0.03 0.07 0.03 0.07 0.13 0.10 0.03 0.03 0.03 0.03
0.00 0.00 0.00 0.00 0.00 0.01 0.00 0.00 0.00 0.01 0.00 0.01 0.01 0.03 0.01 0.01 0.06 0.18 0.21 0.25 0.19 0.08 0.06 0.05 0.07 0.03 0.02 0.02 0.08 0.08 0.30 0.32 0.35 0.35 0.31 0.17 0.14 0.34 0.38 0.14 0.10 0.12 0.03 0.02 0.02 0.03 0.03 0.06 0.06 0.03 0.04 0.02 0.00 0.02 0.00 0.00 0.00 0.00 0.00 0.00 0.00 0.00 0.00 0.00 0.00 0.01 0.01 0.00 0.01 0.02 0.03 0.03 0.00 0.00 0.01 0.01 0.02 0.00 0.00 0.00 0.01 0.00 0.01 0.02 0.03 0.03 0.06 0.05 0.09 0.07 0.04 0.05 0.02 0.08 0.06 0.05 0.07
0.00 0.00 0.00 0.00 0.00 0.00 0.00 0.00 0.01 0.01 0.01 0.06 0.02 0.06 0.02 0.08 0.43 0.52 0.32 0.08 0.17 0.25 0.03 0.01 0.04 0.12 0.04 0.03 0.07 0.04 0.12 0.44 0.59 0.58 0.44 0.43 0.42 0.33 0.44 0.28 0.37 0.41 0.17 0.17 0.05 0.09 0.16 0.06 0.18 0.04 0.03 0.06 0.06 0.01 0.00 0.00 0.00 0.00 0.00 0.00 0.00 0.00 0.00 0.00 0.00 0.02 0.02 0.00 0.00 0.01 0.01 0.01 0.01 0.00 0.00 0.03 0.01 0.00 0.00 0.00 0.01 0.01 0.01 0.01 0.01 0.04 0.02 0.03 0.06 0.09 0.05 0.09 0.05 0.08 0.08 0.07 0.08
0.00 0.00 0.00 0.00 0.00 0.00 0.00 0.00 0.00 0.00 0.00 0.06 0.02 0.04 0.04 0.05 0.14 0.03 0.06 0.10 0.09 0.13 0.06 0.02 0.04 0.15 0.14 0.07 0.06 0.05 0.04 0.17 0.81 0.65 0.73 0.34 0.55 0.46 0.59 0.61 1.20 1.71 0.82 0.18 0.27 0.32 0.13 0.12 0.15 0.07 0.06 0.05 0.03 0.02 0.00 0.00 0.00 0.00 0.00 0.00 0.00 0.00 0.00 0.00 0.00 0.00 0.00 0.00 0.00 0.02 0.04 0.00 0.00 0.01 0.01 0.01 0.00 0.00 0.00 0.00 0.00 0.01 0.01 0.01 0.01 0.01 0.02 0.03 0.03 0.03 0.04 0.07 0.07 0.04 0.04 0.05 0.04
0.00 0.00 0.00 0.00 0.00 0.00 0.00 0.00 0.01 0.00 0.06 0.00 0.36 0.38 0.27 0.07 0.20 0.26 0.15 0.26 0.21 0.35 0.24 0.16 0.04 0.08 0.11 0.03 0.04 0.04 0.09 0.26 0.43 0.39 1.43 1.62 1.63 1.46 1.08 0.79 1.63 1.54 1.04 0.66 0.60 0.33 0.26 0.36 0.17 0.22 0.75 0.59 0.14 0.05 0.01 0.00 0.00 0.00 0.00 0.00 0.00 0.00 0.00 0.00 0.00 0.00 0.00 0.00 0.00 0.01 0.01 0.03 0.03 0.01 0.00 0.00 0.00 0.00 0.00 0.00 0.00 0.00 0.00 0.00 0.01 0.00 0.00 0.02 0.02 0.02 0.01 0.01 0.03 0.03 0.02 0.04 0.03
0.00 0.00 0.00 0.00 0.00 0.00 0.00 0.00 0.00 0.01 0.03 0.01 0.05 0.19 0.24 0.40 0.64 0.48 0.54 0.88 0.46 0.65 0.16 0.21 0.15 0.15 0.08 0.07 0.06 0.06 0.07 0.11 0.17 0.52 0.80 1.11 1.18 0.83 0.92 1.48 2.47 1.67 1.00 1.09 0.92 1.02 1.19 1.24 0.60 0.72 1.62 0.96 0.50 0.34 0.16 0.05 0.00 0.00 0.00 0.00 0.00 0.00 0.00 0.00 0.00 0.00 0.00 0.00 0.00 0.00 0.00 0.03 0.01 0.01 0.01 0.00 0.00 0.00 0.00 0.01 0.02 0.00 0.00 0.02 0.01 0.03 0.01 0.01 0.02 0.03 0.01 0.01 0.05 0.07 0.03 0.01 0.01
0.00 0.00 0.00 0.00 0.00 0.00 0.00 0.00 0.00 0.00 0.00 0.00 0.02 0.09 0.14 0.18 0.17 0.30 0.94 0.34 0.46 0.50 0.09 0.15 0.22 0.18 0.13 0.05 0.03 0.06 0.06 0.10 0.08 0.25 0.40 0.57 1.28 1.15 0.92 0.83 0.52 1.36 0.73 0.93 1.39 1.71 1.98 1.48 1.44 1.59 1.87 1.01 0.95 0.45 0.40 0.43 0.11 0.01 0.00 0.00 0.00 0.00 0.00 0.00 0.00 0.00 0.00 0.00 0.00 0.01 0.01 0.01 0.02 0.01 0.04 0.06 0.04 0.00 0.00 0.00 0.00 0.00 0.02 0.03 0.01 0.01 0.00 0.01 0.02 0.01 0.01 0.01 0.01 0.01 0.02 0.00 0.00